TimeAKST,TemperatureF,Dew PointF,Humidity,Sea Level PressureIn,VisibilityMPH,Wind Direction,Wind SpeedMPH,Gust SpeedMPH,PrecipitationIn,Events,Conditions,WindDirDegrees,DateUTC
12:53 AM,-11.0,-16.1,78,29.92,10.0,NNE,3.5,-,N/A,,Clear,30,2012-12-07 09:53:00
1:53 AM,-11.9,-16.1,82,29.93,10.0,NE,3.5,-,N/A,,Clear,50,2012-12-07 10:53:00
3:53 AM,-11.0,-16.1,78,29.93,10.0,NE,3.5,-,N/A,,Clear,40,2012-12-07 12:53:00
4:53 AM,-8.0,-11.9,83,29.92,10.0,Calm,Calm,-,N/A,,Clear,0,2012-12-07 13:53:00
5:53 AM,-8.0,-11.9,83,29.92,10.0,NNE,3.5,-,N/A,,Clear,20,2012-12-07 14:53:00
6:53 AM,-9.9,-14.1,82,29.92,10.0,NE,5.8,-,N/A,,Clear,40,2012-12-07 15:53:00
7:53 AM,-6.0,-9.9,83,29.91,10.0,NNE,8.1,-,N/A,,Clear,20,2012-12-07 16:53:00
8:53 AM,-4.0,-8.0,83,29.92,10.0,NNE,9.2,-,N/A,,Clear,20,2012-12-07 17:53:00
9:25 AM,-5.8,-7.6,92,29.91,10.0,NNE,6.9,-,N/A,,Scattered Clouds,30,2012-12-07 18:25:00
9:32 AM,-4.0,-5.8,92,29.92,1.5,NNE,6.9,-,N/A,,Scattered Clouds,20,2012-12-07 18:32:00
9:34 AM,-4.0,-5.8,92,29.92,0.8,NNE,6.9,-,N/A,,Mostly Cloudy,30,2012-12-07 18:34:00
9:51 AM,-4.0,-5.8,92,29.92,0.2,North,6.9,-,N/A,Fog,Light Freezing Fog,10,2012-12-07 18:51:00
9:53 AM,-4.0,-6.0,91,29.93,0.2,North,8.1,-,N/A,Fog,Light Freezing Fog,10,2012-12-07 18:53:00
10:07 AM,-5.8,-7.6,92,29.92,10.0,NNE,8.1,-,N/A,Fog,Patches of Fog,20,2012-12-07 19:07:00
10:53 AM,-4.0,-7.1,87,29.95,10.0,North,3.5,-,N/A,,Clear,10,2012-12-07 19:53:00
11:53 AM,-0.9,-5.1,83,29.95,10.0,NNE,3.5,-,N/A,,Clear,30,2012-12-07 20:53:00
12:53 PM,1.9,-2.0,83,29.95,10.0,NE,5.8,-,N/A,,Clear,40,2012-12-07 21:53:00
1:53 PM,3.0,-0.9,84,29.93,10.0,NE,6.9,-,N/A,,Clear,40,2012-12-07 22:53:00
2:53 PM,3.9,-0.9,80,29.93,10.0,NNE,8.1,-,N/A,,Clear,30,2012-12-07 23:53:00
3:53 PM,1.9,-2.0,83,29.92,10.0,NNE,6.9,-,N/A,,Clear,30,2012-12-08 00:53:00
4:53 PM,-2.9,-6.0,87,29.93,10.0,Calm,Calm,-,N/A,,Clear,0,2012-12-08 01:53:00
5:53 PM,-2.9,-7.1,82,29.92,10.0,NE,6.9,-,N/A,,Clear,40,2012-12-08 02:53:00
6:53 PM,-2.9,-7.1,82,29.92,10.0,NNE,8.1,-,N/A,,Clear,30,2012-12-08 03:53:00
7:53 PM,-2.0,-6.0,83,29.92,10.0,NNE,5.8,-,N/A,,Partly Cloudy,30,2012-12-08 04:53:00
8:53 PM,5.0,-0.0,80,29.92,10.0,NNE,9.2,-,N/A,,Overcast,30,2012-12-08 05:53:00
9:53 PM,6.1,-0.0,76,29.92,10.0,NE,8.1,-,N/A,,Overcast,40,2012-12-08 06:53:00
10:53 PM,3.9,-0.9,80,29.92,10.0,NE,6.9,-,N/A,,Mostly Cloudy,50,2012-12-08 07:53:00
11:53 PM,1.9,-2.9,80,29.93,10.0,NE,5.8,-,N/A,,Mostly Cloudy,50,2012-12-08 08:53:00